Location: Newark
(7.0858°N, 171.3717°E)
Time: 05:44:57
(UTC+00:00)

Courier 1B Rocket - Pass Details

Date: 27 November 2020
Orbit: 920 x 1202 km, 28.2° (Epoch: 20 January)

Event Time Altitude Azimuth Distance (km) Brightness Sun altitude
Rises 20:07:46 0° 302° (WNW) 4,077 7.6 21.4°
Reaches altitude 10° 20:12:32 10° 327° (NNW) 3,082 7.2 22.5°
Maximum altitude 20:16:04 14° 355° (N) 2,780 7.2 23.3°
Drops below altitude 10° 20:19:33 10° 23° (NNE) 3,007 7.6 24.0°
Sets 20:24:05 0° 49° (NE) 3,903 8.4 25.0°
